{"data":{"norad_id":55778,"intl_designator":"2023-028AP","name":"STARLINK-5816","alt_names":[],"object_type":"PAYLOAD","status":"ACTIVE","operator":null,"country":"US","launch_date":"2023-03-03","launch_site_code":"AFWTR","launch_vehicle":null,"mission":null,"orbit_class":"UNKNOWN","rcs_meters":null,"size_class":null,"mass_kg":null,"dimensions":null,"purposes":["comms"],"wikipedia_slug":null,"has_3d_model":false,"image_url":null,"decayed_at":null,"tle_current":{"epoch":"2026-09-20T22:36:49.742496Z","epoch_age_seconds":64875,"freshness":"FRESH","line1":"1 55778U 23028AP  26263.94224239  .00000026  00000+0  10006-4 0  9999","line2":"2 55778  69.9974  92.0132 0003393 272.2195  87.8575 14.98340345195782","mean_motion":14.98340345,"eccentricity":0.0003393,"inclination_deg":69.9974,"raan_deg":92.0132,"arg_perigee_deg":272.2195,"mean_anomaly_deg":87.8575,"bstar":1.0006e-5,"rev_number":19578,"period_min":96.106335573578,"perigee_km":569.66571047595,"apogee_km":574.38208966274,"semimajor_km":6950.1609000693,"source":"CELESTRAK","updated_at":"2026-09-21T09:00:33.318813Z"}}}